[[{"header":{"parameterUnit":"m.s-1","parameterCategory":1,"la1":30.2991,"la2":30.254,"lo1":-89.0895,"lo2":-89.0444,"dy":0.0017,"dx":0.0017,"nx":28,"ny":28,"refTime":"2023-10-27T09:00:00:Z","depth":0,"parameterNumber":2,"parameterNumberName":"U-component_of_WINDS"},"data":[0,0,0,0,0,0,0,0,0,0,0,0,0,0,0,0,0,0,0,0,0,0,0,0,0,0,0,0,0,0,0,0,0,0,0,0,0,0,0,0,0,0,0,0,0,0,0,0,0,0,0,0,0,0,0,0,0,0,-3.2796,-3.2796,0,-3.2809,-3.2809,-3.2809,-3.273,-3.2728,-3.2726,-3.2724,-3.2736,-3.2738,-3.2741,0,0,0,0,0,0,0,0,0,0,0,0,0,-3.2704,-3.2706,-3.2796,-3.2796,-3.2797,-3.2809,-3.2809,-3.2809,-3.2731,-3.2728,-3.2725,-3.2723,-3.2735,-3.2738,-3.2741,0,0,0,0,0,0,0,0,0,0,0,0,0,-3.2733,-3.2707,-3.2796,-3.2759,-3.2756,-3.2809,-3.2809,-3.2809,-3.2731,-3.2728,-3.2725,-3.2722,-3.2734,-3.2738,-3.2741,-3.283,0,0,-3.2752,-3.2754,0,0,0,0,0,0,0,0,-3.2732,-3.2737,-3.2764,-3.2762,-3.2758,-3.2765,-3.2781,-3.2816,-3.2732,-3.2741,-3.2724,-3.272,-3.2748,-3.275,-3.276,-3.2831,-3.2831,-3.2752,-3.2755,-3.2756,-3.2757,0,0,0,0,0,0,0,-3.273,-3.2736,-3.2801,-3.2765,-3.2761,-3.2742,-3.2742,-3.2787,-3.2763,-3.274,-3.2734,-3.2737,-3.2746,-3.2757,-3.276,-3.2832,-3.2752,-3.2756,-3.2758,-3.2759,-3.2977,-3.2981,0,0,0,0,0,0,-3.2733,-3.2735,-3.2801,-3.2802,-3.2736,-3.2746,-3.2747,-3.2766,-3.2762,-3.2758,-3.2739,-3.2733,-3.2752,-3.2756,-3.276,-3.2863,-3.2756,-3.276,-3.2762,-3.2974,-3.2978,-3.2982,0,0,0,0,0,0,-3.2731,-3.2739,-3.28,-3.2767,-3.2773,-3.2751,-3.2774,-3.2768,-3.2779,-3.2762,-3.2757,-3.2755,-3.275,-3.2755,-3.2814,-3.2863,-3.2761,-3.2764,-3.2969,-3.2975,-3.298,-3.3072,0,0,0,0,0,0,-3.2729,-3.2739,-3.2773,-3.2768,-3.2775,-3.2854,-3.2777,-3.2771,-3.2785,-3.2777,-3.2776,-3.2772,-3.2747,-3.2809,-3.2817,-3.2866,-3.2767,-3.2965,-3.2972,-3.2978,-3.3064,-3.308,-3.3093,0,0,0,0,0,-3.2726,-3.2798,-3.2775,-3.2783,-3.2816,-3.2857,-3.2861,-3.2831,-3.279,-3.2823,-3.2813,-3.2772,-3.2857,-3.2815,-3.2824,-3.2875,-3.2961,-3.297,-3.2978,-3.3058,-3.3076,-3.3092,0,0,0,0,0,0,-3.2807,-3.2796,-3.2771,-3.2843,-3.2852,-3.2843,-3.2884,-3.2852,-3.2872,-3.2863,-3.2826,-3.2827,-3.2892,-3.289,-3.2843,-3.2961,-3.2902,-3.2912,-3.296,-3.2977,-3.2992,-3.2989,-3.277,0,0,0,0,0,-3.2834,-3.2868,-3.2857,-3.2922,-3.2927,-3.2906,-3.2922,-3.2899,-3.2906,-3.2909,-3.2903,-3.2911,-3.294,-3.2959,-3.2984,-3.3065,-3.3063,-3.3104,-3.3119,-3.3131,-3.3139,-3.3181,-3.3199,-3.3009,-3.3009,-3.3008,0,0,-3.2889,-3.2887,-3.291,-3.2938,-3.2942,-3.2978,-3.2909,-3.295,-3.2976,-3.2915,-3.297,-3.2967,-3.2973,-3.3044,-3.3074,-3.3044,-3.3192,-3.3141,-3.3151,-3.3152,-3.3191,-3.3209,-3.3225,-3.3014,-3.3013,-3.3012,0,0,-3.3006,-3.3009,-3.3063,-3.3069,-3.3076,-3.3062,-3.3076,-3.3073,-3.3068,-3.3123,-3.3079,-3.311,-3.316,-3.3167,-3.3177,-3.3301,-3.3264,-3.3311,-3.3384,-3.3426,-3.3441,-3.3454,-3.3497,-3.3513,-3.332,-3.332,-3.332,0,-3.3072,-3.3124,-3.3095,-3.3139,-3.3152,-3.3101,-3.3156,-3.3163,-3.3179,-3.3189,-3.3156,-3.3218,-3.3219,-3.329,-3.3321,-3.3331,-3.3345,-3.3308,-3.3441,-3.3454,-3.3466,-3.3506,-3.3522,-3.3325,-3.3325,-3.3324,-3.3324,0,-3.3205,-3.3243,-3.3286,-3.3303,-3.3322,-3.3371,-3.3349,-3.3372,-3.3349,-3.3338,-3.3395,-3.3396,-3.342,-3.3436,-3.3413,-3.3505,-3.3485,-3.3448,-3.3386,-3.349,-3.3527,-3.3542,-3.3333,-3.3331,-3.333,-3.3328,0,0,-3.3369,-3.3372,-3.3388,-3.3395,-3.3402,-3.343,-3.3478,-3.3503,-3.3523,-3.3537,-3.3575,-3.362,-3.3586,-3.3597,-3.3576,-3.3613,-3.371,-3.357,-3.357,-3.3594,-3.3809,-3.3835,-3.3854,-3.3688,-3.369,-3.3693,-3.3808,0,-3.3482,-3.3563,-3.3539,-3.3621,-3.3655,-3.3609,-3.3651,-3.366,-3.3652,-3.368,-3.3672,-3.3704,-3.3657,-3.3664,-3.3699,-3.3691,-3.3752,-3.3683,-3.3721,-3.3723,-3.3718,-3.3873,-3.39,-3.4009,-3.3822,-3.3825,-3.3827,0,-3.3623,-3.3643,-3.3728,-3.373,-3.3743,-3.3781,-3.3803,-3.3831,-3.3841,-3.3833,-3.3848,-3.3819,-3.3867,-3.3809,-3.3873,-3.3827,-3.3842,-3.3841,-3.3845,-3.3844,-3.3778,-3.3874,-3.4043,-3.4058,-3.385,-3.3848,-3.3846,0,-3.3731,-3.378,-3.3837,-3.3845,-3.385,-3.3877,-3.3881,-3.3887,-3.3904,-3.3924,-3.3935,-3.396,-3.3973,-3.3994,-3.3973,-3.3933,-3.404,-3.3981,-3.4034,-3.4035,-3.4055,-3.4053,-3.4225,-3.4071,-3.4071,-3.407,-3.407,0,-3.3857,-3.391,-3.3886,-3.392,-3.3979,-3.3953,-3.4012,-3.401,-3.4017,-3.4051,-3.4015,-3.4047,-3.4019,-3.405,-3.4035,-3.409,-3.4097,-3.4091,-3.4085,-3.4092,-3.4093,-3.4099,-3.4089,-3.4075,-3.4074,-3.4073,-3.4072,0,-3.3985,-3.3971,-3.403,-3.4031,-3.4033,-3.4076,-3.4076,-3.4109,-3.4101,-3.4144,-3.4153,-3.414,-3.4174,-3.4157,-3.4192,-3.4182,-3.4253,-3.4239,-3.4249,-3.4244,-3.4297,-3.4292,-3.4477,-3.4499,-3.4333,-3.4335,-3.4336,0,-3.4064,-3.4104,-3.4111,-3.4131,-3.4137,-3.4171,-3.4188,-3.4166,-3.4186,-3.4202,-3.4232,-3.4264,-3.4287,-3.4344,-3.4337,-3.4365,-3.4349,-3.4413,-3.4352,-3.4358,-3.4347,-3.4343,-3.4347,-3.4423,-3.4425,-3.4426,-3.4428,0,-3.4206,-3.4198,-3.4225,-3.4252,-3.4274,-3.4294,-3.4309,-3.4329,-3.4307,-3.4331,-3.4366,-3.4385,-3.4422,-3.4453,-3.4478,-3.4481,-3.4451,-3.4448,-3.4461,-3.4466,-3.4469,-3.4466,-3.4278,-3.4442,-3.4441,-3.444,-3.4439,-3.4438,-3.431,-3.4344,-3.4354,-3.4386,-3.4396,-3.4413,-3.4444,-3.4441,-3.447,-3.4498,-3.4484,-3.4525,-3.4536,-3.4565,-3.4573,-3.4605,-3.4579,-3.4599,-3.4604,-3.4608,-3.4614,-3.4468,-3.461,-3.4609,-3.4609,-3.4609,-3.4608,0,-3.4447,-3.4452,-3.4483,-3.4507,-3.4533,-3.4506,-3.4523,-3.4546,-3.4582,-3.4596,-3.4621,-3.4661,-3.4693,-3.4691,-3.4719,-3.4745,-3.4732,-3.4753,-3.4749,-3.475,-3.4636,-3.4621,-3.4763,-3.4763,-3.4763,-3.4763,-3.4763,-3.4763,-3.4521,-3.4576,-3.4571,-3.4631,-3.4636,-3.4676,-3.4689,-3.4704,-3.4715,-3.4762,-3.4788,-3.4788,-3.4795,-3.4824,-3.4852,-3.4851,-3.4862,-3.4888,-3.4881,-3.4774,-3.4758,-3.4743,-3.4728,-3.4891,-3.4891,-3.4991,-3.4992,-3.4993]},{"header":{"parameterUnit":"m.s-1","parameterCategory":1,"la1":30.2991,"la2":30.254,"lo1":-89.0895,"lo2":-89.0444,"dy":0.0017,"dx":0.0017,"nx":28,"ny":28,"refTime":"2023-10-27T09:00:00:Z","depth":0,"parameterNumber":3,"parameterNumberName":"V-component_of_WINDS"},"data":[0,0,0,0,0,0,0,0,0,0,0,0,0,0,0,0,0,0,0,0,0,0,0,0,0,0,0,0,0,0,0,0,0,0,0,0,0,0,0,0,0,0,0,0,0,0,0,0,0,0,0,0,0,0,0,0,0,0,0.7814,0.7814,0,0.7778,0.7777,0.7777,0.7744,0.7743,0.7743,0.7742,0.7702,0.7701,0.77,0,0,0,0,0,0,0,0,0,0,0,0,0,0.7853,0.7853,0.7814,0.7814,0.7813,0.7778,0.7777,0.7777,0.7744,0.7743,0.7743,0.7742,0.7702,0.7701,0.77,0,0,0,0,0,0,0,0,0,0,0,0,0,0.7828,0.7852,0.7814,0.7793,0.779,0.7778,0.7777,0.7777,0.7744,0.7743,0.7743,0.7742,0.7702,0.7701,0.77,0.7706,0,0,0.7697,0.7697,0,0,0,0,0,0,0,0,0.783,0.7827,0.7796,0.7794,0.7791,0.7765,0.7776,0.7753,0.7744,0.7761,0.7742,0.7742,0.7723,0.772,0.7715,0.7704,0.7702,0.7697,0.7696,0.7696,0.7696,0,0,0,0,0,0,0,0.7832,0.7828,0.78,0.7796,0.7793,0.7784,0.778,0.7772,0.7746,0.776,0.7757,0.7754,0.7722,0.7716,0.7713,0.7702,0.7697,0.7696,0.7695,0.7695,0.7696,0.7697,0,0,0,0,0,0,0.7837,0.783,0.7801,0.7799,0.781,0.7784,0.7779,0.7774,0.7746,0.7741,0.7754,0.7752,0.7718,0.7715,0.7712,0.7718,0.7696,0.7695,0.7694,0.7696,0.7696,0.7697,0,0,0,0,0,0,0.7838,0.7835,0.7802,0.7814,0.7809,0.7784,0.7778,0.7773,0.7768,0.7742,0.7737,0.7753,0.7717,0.7713,0.7708,0.7716,0.7694,0.7693,0.7695,0.7696,0.7697,0.773,0,0,0,0,0,0,0.7839,0.7835,0.7837,0.7814,0.7809,0.78,0.7779,0.7773,0.7766,0.7763,0.7739,0.7735,0.7716,0.771,0.7707,0.7715,0.7693,0.7694,0.7695,0.7696,0.7728,0.7732,0.7736,0,0,0,0,0,0.7841,0.7847,0.7838,0.7834,0.7811,0.78,0.7797,0.7777,0.7767,0.7769,0.7753,0.7735,0.7716,0.771,0.7706,0.7713,0.7693,0.7695,0.7696,0.7727,0.7732,0.7736,0,0,0,0,0,0,0.7869,0.7843,0.7833,0.7831,0.7819,0.7795,0.7796,0.7782,0.7771,0.7769,0.7743,0.7738,0.7736,0.7724,0.7718,0.7719,0.7702,0.7703,0.7727,0.7731,0.7735,0.7738,0.7692,0,0,0,0,0,0.7876,0.7871,0.7848,0.7849,0.7843,0.7821,0.7816,0.7802,0.7787,0.7781,0.7764,0.775,0.7741,0.7735,0.7725,0.7726,0.7722,0.773,0.7733,0.7737,0.7738,0.774,0.7744,0.7702,0.7702,0.7702,0,0,0.7889,0.7874,0.7872,0.7854,0.7843,0.7838,0.7817,0.7811,0.7808,0.778,0.7775,0.7763,0.7745,0.7744,0.7742,0.7734,0.7748,0.7739,0.7741,0.7741,0.7742,0.7746,0.7749,0.7703,0.7703,0.7703,0,0,0.791,0.7898,0.7899,0.7888,0.7872,0.7858,0.7858,0.7837,0.7828,0.7823,0.7803,0.7798,0.7782,0.7771,0.7763,0.7784,0.7768,0.7781,0.78,0.7803,0.7806,0.7809,0.7818,0.7821,0.7782,0.7782,0.7782,0,0.7927,0.792,0.79,0.7898,0.7891,0.7868,0.7869,0.7859,0.784,0.7836,0.7827,0.7809,0.7795,0.7792,0.7798,0.7792,0.7792,0.7784,0.7807,0.781,0.7812,0.7821,0.7824,0.7784,0.7784,0.7784,0.7784,0,0.7943,0.7939,0.7941,0.7926,0.792,0.7919,0.7899,0.7895,0.7882,0.7869,0.7865,0.7849,0.7836,0.7834,0.782,0.783,0.7826,0.7812,0.7796,0.7819,0.7826,0.7829,0.7787,0.7786,0.7786,0.7785,0,0,0.798,0.7956,0.7957,0.7951,0.7933,0.7928,0.7927,0.7917,0.7915,0.7902,0.7901,0.789,0.7879,0.787,0.7855,0.7857,0.7877,0.7844,0.7843,0.7852,0.7889,0.79,0.7904,0.7867,0.7867,0.7868,0.7891,0,0.7999,0.7996,0.798,0.7982,0.7978,0.7958,0.7957,0.7945,0.7934,0.7929,0.7915,0.7908,0.7893,0.7888,0.7889,0.7875,0.7884,0.7872,0.7866,0.7866,0.7872,0.7908,0.7919,0.7941,0.7894,0.7894,0.7895,0,0.802,0.8012,0.8015,0.7999,0.7997,0.7997,0.7987,0.7982,0.797,0.7961,0.7953,0.7938,0.7936,0.792,0.7918,0.791,0.7907,0.7899,0.79,0.7899,0.7882,0.7909,0.7948,0.7952,0.7899,0.7898,0.7898,0,0.8048,0.8038,0.8039,0.8034,0.8015,0.8016,0.8008,0.7995,0.7991,0.7982,0.7979,0.797,0.7965,0.7958,0.7941,0.7931,0.7941,0.7923,0.7934,0.7935,0.7937,0.7938,0.7978,0.7934,0.7934,0.7934,0.7934,0,0.8072,0.8074,0.8052,0.8053,0.8056,0.8037,0.804,0.803,0.8019,0.8018,0.7998,0.7997,0.7974,0.797,0.7957,0.7958,0.7955,0.7949,0.7945,0.7951,0.7952,0.7949,0.7947,0.7935,0.7934,0.7934,0.7934,0,0.8104,0.8089,0.8089,0.8072,0.8068,0.8071,0.8057,0.8057,0.8045,0.8044,0.8042,0.8023,0.8018,0.8001,0.799,0.7981,0.7988,0.798,0.7992,0.799,0.8003,0.8003,0.8043,0.8048,0.8,0.8,0.8001,0,0.812,0.8122,0.8107,0.8105,0.8099,0.8096,0.8093,0.8075,0.8071,0.8059,0.8061,0.8055,0.8049,0.8043,0.8028,0.8021,0.8013,0.8028,0.8012,0.8019,0.8015,0.8016,0.8017,0.8032,0.8032,0.8033,0.8033,0,0.815,0.8144,0.814,0.8135,0.8131,0.8126,0.8119,0.8118,0.8098,0.8096,0.8092,0.8088,0.8079,0.8074,0.8065,0.8056,0.8042,0.8039,0.8041,0.8047,0.8055,0.8053,0.8003,0.8038,0.8037,0.8037,0.8037,0.8036,0.8176,0.8178,0.8169,0.8166,0.8159,0.8154,0.8154,0.8144,0.814,0.8133,0.8123,0.812,0.811,0.8097,0.809,0.8088,0.8079,0.8082,0.8083,0.8085,0.8089,0.8055,0.8086,0.8086,0.8085,0.8085,0.8085,0,0.8207,0.8201,0.8198,0.8191,0.8189,0.8177,0.817,0.8169,0.8168,0.816,0.8155,0.8152,0.8147,0.8133,0.8128,0.8129,0.8123,0.8128,0.8128,0.8127,0.8095,0.8095,0.8134,0.8134,0.8134,0.8134,0.8134,0.8134,0.8223,0.8227,0.822,0.8221,0.8214,0.8213,0.821,0.8205,0.8199,0.8197,0.8194,0.8185,0.8175,0.8169,0.8165,0.8161,0.8161,0.8169,0.8163,0.8134,0.8129,0.8125,0.8124,0.8169,0.8169,0.8195,0.8195,0.8196]}]]